Location: Meanaryar
(48.4161°N, 4.7315°W)
Time: 15:24:38
(UTC+00:00)

COSMO-SKYMED 1 - Pass Details

Date: 18 September 2020
Orbit: 621 x 623 km, 97.9° (Epoch: 24 October)

Event Time Altitude Azimuth Distance (km) Brightness Sun altitude
Rises 19:07:33 0° 7° (N) 2,917 6.1 -7.9°
Reaches altitude 10° 19:09:50 10° 1° (N) 2,005 5.3 -8.3°
Maximum altitude 19:13:57 42° 291° (WNW) 889 4.0 -9.0°
Drops below altitude 10° 19:18:02 10° 220° (SW) 1,990 5.5 -9.6°
Sets 19:20:17 0° 214° (SSW) 2,891 6.3 -10.0°
